Year,Month,Day,Hour,Minute,Value (Times are PST for windspeed in km/hr)
2017,05,24,00,00,7.90
2017,05,24,00,01,13.20
2017,05,24,00,02,9.10
2017,05,24,00,03,8.70
2017,05,24,00,04,11.50
2017,05,24,00,05,13.40
2017,05,24,00,06,15.40
2017,05,24,00,07,10.50
2017,05,24,00,08,15.40
2017,05,24,00,09,20.60
2017,05,24,00,10,15.20
2017,05,24,00,11,20.60
2017,05,24,00,12,14.30
2017,05,24,00,13,13.50
2017,05,24,00,14,13.90
2017,05,24,00,15,11.70
2017,05,24,00,16,12.10
2017,05,24,00,17,15.10
2017,05,24,00,18,18.50
2017,05,24,00,19,15.10
2017,05,24,00,20,12.90
2017,05,24,00,21,18.00
2017,05,24,00,22,21.30
2017,05,24,00,23,20.30
2017,05,24,00,24,12.50
2017,05,24,00,25,12.00
2017,05,24,00,26,16.60
2017,05,24,00,27,11.40
2017,05,24,00,28,13.50
2017,05,24,00,29,20.10
2017,05,24,00,30,15.00
2017,05,24,00,31,13.80
2017,05,24,00,32,14.90
2017,05,24,00,33,16.10
2017,05,24,00,34,15.90
2017,05,24,00,35,14.90
2017,05,24,00,36,13.00
2017,05,24,00,37,13.70
2017,05,24,00,38,14.10
2017,05,24,00,39,15.00
2017,05,24,00,40,15.50
2017,05,24,00,41,16.40
2017,05,24,00,42,13.90
2017,05,24,00,43,10.30
2017,05,24,00,44,9.70
2017,05,24,00,45,10.70
2017,05,24,00,46,11.20
2017,05,24,00,47,11.50
2017,05,24,00,48,11.30
2017,05,24,00,49,9.60
2017,05,24,00,50,7.90
2017,05,24,00,51,10.40
2017,05,24,00,52,11.80
2017,05,24,00,53,13.50
2017,05,24,00,54,11.70
2017,05,24,00,55,13.60
2017,05,24,00,56,9.20
2017,05,24,00,57,14.40
2017,05,24,00,58,15.70
2017,05,24,00,59,13.70
2017,05,24,01,00,13.90
2017,05,24,01,01,11.80
2017,05,24,01,02,13.40
2017,05,24,01,03,13.60
2017,05,24,01,04,14.20
2017,05,24,01,05,12.30
2017,05,24,01,06,14.40
2017,05,24,01,07,14.10
2017,05,24,01,08,14.10
2017,05,24,01,09,13.40
2017,05,24,01,10,13.70
2017,05,24,01,11,14.40
2017,05,24,01,12,13.40
2017,05,24,01,13,14.10
2017,05,24,01,14,18.60
2017,05,24,01,15,15.10
2017,05,24,01,16,16.60
2017,05,24,01,17,13.30
2017,05,24,01,18,10.50
2017,05,24,01,19,12.30
2017,05,24,01,20,10.90
2017,05,24,01,21,17.50
2017,05,24,01,22,18.00
2017,05,24,01,23,15.40
2017,05,24,01,24,13.50
2017,05,24,01,25,11.20
2017,05,24,01,26,10.40
2017,05,24,01,27,13.40
2017,05,24,01,28,13.30
2017,05,24,01,29,15.40
2017,05,24,01,30,11.80
2017,05,24,01,31,11.80
2017,05,24,01,32,15.30
2017,05,24,01,33,10.00
2017,05,24,01,34,8.30
2017,05,24,01,35,8.00
2017,05,24,01,36,10.50
2017,05,24,01,37,13.10
2017,05,24,01,38,8.20
2017,05,24,01,39,15.50
2017,05,24,01,40,10.80
2017,05,24,01,41,7.20
2017,05,24,01,42,13.20
2017,05,24,01,43,10.80
2017,05,24,01,44,12.00
2017,05,24,01,45,11.30
2017,05,24,01,46,15.30
2017,05,24,01,47,13.90
2017,05,24,01,48,14.50
2017,05,24,01,49,10.50
2017,05,24,01,50,17.90
2017,05,24,01,51,14.90
2017,05,24,01,52,13.10
2017,05,24,01,53,19.20
2017,05,24,01,54,15.20
2017,05,24,01,55,14.80
2017,05,24,01,56,15.30
2017,05,24,01,57,12.90
2017,05,24,01,58,18.10
2017,05,24,01,59,19.50
2017,05,24,02,00,18.80
2017,05,24,02,01,11.30
2017,05,24,02,02,17.30
2017,05,24,02,03,16.00
2017,05,24,02,04,15.50
2017,05,24,02,05,15.50
2017,05,24,02,06,16.40
2017,05,24,02,07,19.90
2017,05,24,02,08,17.60
2017,05,24,02,09,11.00
2017,05,24,02,10,16.10
2017,05,24,02,11,20.10
2017,05,24,02,12,20.60
2017,05,24,02,13,15.00
2017,05,24,02,14,12.50
2017,05,24,02,15,10.50
2017,05,24,02,16,12.90
2017,05,24,02,17,16.00
2017,05,24,02,18,16.40
2017,05,24,02,19,18.40
2017,05,24,02,20,17.90
2017,05,24,02,21,16.10
2017,05,24,02,22,11.40
2017,05,24,02,23,12.70
2017,05,24,02,24,8.60
2017,05,24,02,25,19.10
2017,05,24,02,26,17.90
2017,05,24,02,27,18.80
2017,05,24,02,28,15.60
2017,05,24,02,29,17.30
2017,05,24,02,30,8.90
2017,05,24,02,31,14.10
2017,05,24,02,32,17.90
2017,05,24,02,33,11.70
2017,05,24,02,34,19.30
2017,05,24,02,35,12.90
2017,05,24,02,36,14.60
2017,05,24,02,37,13.50
2017,05,24,02,38,15.10
2017,05,24,02,39,13.80
2017,05,24,02,40,15.90
2017,05,24,02,41,11.80
2017,05,24,02,42,14.50
2017,05,24,02,43,11.60
2017,05,24,02,44,15.70
2017,05,24,02,45,14.70
2017,05,24,02,46,10.40
2017,05,24,02,47,14.90
2017,05,24,02,48,16.00
2017,05,24,02,49,17.80
2017,05,24,02,50,16.80
2017,05,24,02,51,11.50
2017,05,24,02,52,17.30
2017,05,24,02,53,17.40
2017,05,24,02,54,13.30
2017,05,24,02,55,17.40
2017,05,24,02,56,15.80
2017,05,24,02,57,13.00
2017,05,24,02,58,15.70
2017,05,24,02,59,10.90
2017,05,24,03,00,11.30
2017,05,24,03,01,11.30
2017,05,24,03,02,11.30
2017,05,24,03,03,11.30
2017,05,24,03,04,11.30
2017,05,24,03,05,11.30
2017,05,24,03,06,11.30
2017,05,24,03,07,11.30
2017,05,24,03,08,11.30
2017,05,24,08,13,8.20
2017,05,24,08,14,11.20
2017,05,24,08,15,13.20
2017,05,24,08,16,14.80
2017,05,24,08,17,11.00
2017,05,24,08,18,6.80
2017,05,24,08,19,11.80
2017,05,24,08,20,10.80
2017,05,24,08,21,12.20
2017,05,24,08,22,12.20
2017,05,24,08,23,12.90
2017,05,24,08,24,14.10
2017,05,24,08,25,9.40
2017,05,24,08,26,9.60
2017,05,24,08,27,9.60
2017,05,24,08,28,8.80
2017,05,24,08,29,10.80
2017,05,24,08,30,11.80
2017,05,24,08,31,11.90
2017,05,24,08,32,9.30
2017,05,24,08,33,7.80
2017,05,24,08,34,7.90
2017,05,24,08,35,12.50
2017,05,24,08,36,14.50
2017,05,24,08,37,8.50
2017,05,24,08,38,10.00
2017,05,24,08,39,11.40
2017,05,24,08,40,14.20
2017,05,24,08,41,11.70
2017,05,24,08,42,12.90
2017,05,24,08,43,13.20
2017,05,24,08,44,13.20
2017,05,24,08,45,10.20
2017,05,24,08,46,10.10
2017,05,24,08,47,8.40
2017,05,24,08,48,8.80
2017,05,24,08,49,16.40
2017,05,24,08,50,19.30
2017,05,24,08,51,18.60
2017,05,24,08,52,13.40
2017,05,24,08,53,16.30
2017,05,24,08,54,16.30
2017,05,24,08,55,15.60
2017,05,24,08,56,11.20
2017,05,24,08,57,7.80
2017,05,24,08,58,7.40
2017,05,24,08,59,11.80
2017,05,24,09,00,15.00
2017,05,24,09,01,10.70
2017,05,24,09,02,11.20
2017,05,24,09,03,11.00
2017,05,24,09,04,12.60
2017,05,24,09,05,10.40
2017,05,24,09,06,15.40
2017,05,24,09,07,10.20
2017,05,24,09,08,9.70
2017,05,24,09,09,13.70
2017,05,24,09,10,10.00
2017,05,24,09,11,10.20
2017,05,24,09,12,9.80
2017,05,24,09,13,9.00
2017,05,24,09,14,5.30
2017,05,24,09,15,7.10
2017,05,24,09,16,8.70
2017,05,24,09,17,16.30
2017,05,24,09,18,14.00
2017,05,24,09,19,10.80
2017,05,24,09,20,10.80
2017,05,24,09,21,12.10
2017,05,24,09,22,9.60
2017,05,24,09,23,13.00
2017,05,24,09,24,14.20
2017,05,24,09,25,12.40
2017,05,24,09,26,11.50
2017,05,24,09,27,13.80
2017,05,24,09,28,13.70
2017,05,24,09,29,12.40
2017,05,24,09,30,13.60
2017,05,24,09,31,15.90
2017,05,24,09,32,13.50
2017,05,24,09,33,13.90
2017,05,24,09,34,17.90
2017,05,24,09,35,11.20
2017,05,24,09,36,17.00
2017,05,24,09,37,16.30
2017,05,24,09,38,15.90
2017,05,24,09,39,12.00
2017,05,24,09,40,14.10
2017,05,24,09,41,8.90
2017,05,24,09,42,11.70
2017,05,24,09,43,10.80
2017,05,24,09,44,11.10
2017,05,24,09,45,10.10
2017,05,24,09,46,10.80
2017,05,24,09,47,12.80
2017,05,24,09,48,7.60
2017,05,24,09,49,6.90
2017,05,24,09,50,4.90
2017,05,24,09,51,10.80
2017,05,24,09,52,12.20
2017,05,24,09,53,13.50
2017,05,24,09,54,12.00
2017,05,24,09,55,8.80
2017,05,24,09,56,7.90
2017,05,24,09,57,6.40
2017,05,24,09,58,8.40
2017,05,24,09,59,5.40
2017,05,24,10,00,11.00
2017,05,24,10,01,10.60
2017,05,24,10,02,9.30
2017,05,24,10,03,7.30
2017,05,24,10,04,8.00
2017,05,24,10,05,9.30
2017,05,24,10,06,7.20
2017,05,24,10,07,6.90
2017,05,24,10,08,8.30
2017,05,24,10,09,9.30
2017,05,24,10,10,9.70
2017,05,24,10,11,8.20
2017,05,24,10,12,6.50
2017,05,24,10,13,11.20
2017,05,24,10,14,13.20
2017,05,24,10,15,9.00
2017,05,24,10,16,8.90
2017,05,24,10,17,11.20
2017,05,24,10,18,7.10
2017,05,24,10,19,8.30
2017,05,24,10,20,12.70
2017,05,24,10,21,14.50
2017,05,24,10,22,12.90
2017,05,24,10,23,6.90
2017,05,24,10,24,14.40
2017,05,24,10,25,15.10
2017,05,24,10,26,14.60
2017,05,24,10,27,12.20
2017,05,24,10,28,14.50
2017,05,24,10,29,9.50
2017,05,24,10,30,13.40
2017,05,24,10,31,14.50
2017,05,24,10,32,16.00
2017,05,24,10,33,12.80
2017,05,24,10,34,13.50
2017,05,24,10,35,12.80
2017,05,24,10,36,10.80
2017,05,24,10,37,11.80
2017,05,24,10,38,16.30
2017,05,24,10,39,13.10
2017,05,24,10,40,14.00
2017,05,24,10,41,10.00
2017,05,24,10,42,11.70
2017,05,24,10,43,13.20
2017,05,24,10,44,11.50
2017,05,24,10,45,19.20
2017,05,24,10,46,16.30
2017,05,24,10,47,17.60
2017,05,24,10,48,14.50
2017,05,24,10,49,10.20
2017,05,24,10,50,9.90
2017,05,24,10,51,10.40
2017,05,24,10,52,12.20
2017,05,24,10,53,10.90
2017,05,24,10,54,10.20
2017,05,24,10,55,13.50
2017,05,24,10,56,11.00
2017,05,24,10,57,8.80
2017,05,24,10,58,12.40
2017,05,24,10,59,9.80
2017,05,24,11,00,13.00
2017,05,24,11,01,12.90
2017,05,24,11,02,7.90
2017,05,24,11,03,15.10
2017,05,24,11,04,13.60
2017,05,24,11,05,12.70
2017,05,24,11,06,14.00
2017,05,24,11,07,12.30
2017,05,24,11,08,13.70
2017,05,24,11,09,14.20
2017,05,24,11,10,11.30
2017,05,24,11,11,12.40
2017,05,24,11,12,15.20
2017,05,24,11,13,13.30
2017,05,24,11,14,18.10
2017,05,24,11,15,20.10
2017,05,24,11,16,16.20
2017,05,24,11,17,11.80
2017,05,24,11,18,6.80
2017,05,24,11,19,16.30
2017,05,24,11,20,17.50
2017,05,24,11,21,17.30
2017,05,24,11,22,19.10
2017,05,24,11,23,17.10
2017,05,24,11,24,16.10
2017,05,24,11,25,13.70
2017,05,24,11,26,12.70
2017,05,24,11,27,13.70
2017,05,24,11,28,13.20
2017,05,24,11,29,14.00
2017,05,24,11,30,13.20
2017,05,24,11,31,10.70
2017,05,24,11,32,12.30
2017,05,24,11,33,11.70
2017,05,24,11,34,16.80
2017,05,24,11,35,11.20
2017,05,24,11,36,8.90
2017,05,24,11,37,10.10
2017,05,24,11,38,14.70
2017,05,24,11,39,14.50
2017,05,24,11,40,19.50
2017,05,24,11,41,15.60
2017,05,24,11,42,13.20
2017,05,24,11,43,11.50
2017,05,24,11,44,10.40
2017,05,24,11,45,7.30
2017,05,24,11,46,18.80
2017,05,24,11,47,17.40
2017,05,24,11,48,12.30
2017,05,24,11,49,13.80
2017,05,24,11,50,12.70
2017,05,24,11,51,14.00
2017,05,24,11,52,10.30
2017,05,24,11,53,10.40
2017,05,24,11,54,13.20
2017,05,24,11,55,8.90
2017,05,24,11,56,12.90
2017,05,24,11,57,14.50
2017,05,24,11,58,16.30
2017,05,24,11,59,13.10
2017,05,24,12,00,9.80
2017,05,24,12,01,9.20
2017,05,24,12,02,11.00
2017,05,24,12,03,8.90
2017,05,24,12,04,9.90
2017,05,24,12,05,13.50
2017,05,24,12,06,12.90
2017,05,24,12,07,13.60
2017,05,24,12,08,15.50
2017,05,24,12,09,19.20
2017,05,24,12,10,14.40
2017,05,24,12,11,9.50
2017,05,24,12,12,12.00
2017,05,24,12,13,8.30
2017,05,24,12,14,6.70
2017,05,24,12,15,10.30
2017,05,24,12,16,10.70
2017,05,24,12,17,18.10
2017,05,24,12,18,13.70
2017,05,24,12,19,11.80
2017,05,24,12,20,6.70
2017,05,24,12,21,11.70
2017,05,24,12,22,7.90
2017,05,24,12,23,10.00
2017,05,24,12,24,7.40
2017,05,24,12,25,14.40
2017,05,24,12,26,9.20
2017,05,24,12,27,15.90
2017,05,24,12,28,13.20
2017,05,24,12,29,12.60
2017,05,24,12,30,8.50
2017,05,24,12,31,12.00
2017,05,24,12,32,12.50
2017,05,24,12,33,13.40
2017,05,24,12,34,14.30
2017,05,24,12,35,18.10
2017,05,24,12,36,18.90
2017,05,24,12,37,10.50
2017,05,24,12,38,13.50
2017,05,24,12,39,11.70
2017,05,24,12,40,8.60
2017,05,24,12,41,11.80
2017,05,24,12,42,15.50
2017,05,24,12,43,17.70
2017,05,24,12,44,8.20
2017,05,24,12,45,9.70
2017,05,24,12,46,11.90
2017,05,24,12,47,12.50
2017,05,24,12,48,10.70
2017,05,24,12,49,11.40
2017,05,24,12,50,12.70
2017,05,24,12,51,15.40
2017,05,24,12,52,9.10
2017,05,24,12,53,11.60
2017,05,24,12,54,15.30
2017,05,24,12,55,15.10
2017,05,24,12,56,11.90
2017,05,24,12,57,10.70
2017,05,24,12,58,13.00
2017,05,24,12,59,13.80
2017,05,24,13,00,12.40
2017,05,24,13,01,12.80
2017,05,24,13,02,13.90
2017,05,24,13,03,8.50
2017,05,24,13,04,7.20
2017,05,24,13,05,12.00
2017,05,24,13,06,9.40
2017,05,24,13,07,14.00
2017,05,24,13,08,15.50
2017,05,24,13,09,10.90
2017,05,24,13,10,9.90
2017,05,24,13,11,11.40
2017,05,24,13,12,9.80
2017,05,24,13,13,13.20
2017,05,24,13,14,16.50
2017,05,24,13,15,6.70
2017,05,24,13,16,5.90
2017,05,24,13,17,11.20
2017,05,24,13,18,6.20
2017,05,24,13,19,9.10
2017,05,24,13,20,7.60
2017,05,24,13,21,1.80
2017,05,24,13,22,5.40
2017,05,24,13,23,5.60
2017,05,24,13,24,5.30
2017,05,24,13,25,5.70
2017,05,24,13,26,7.20
2017,05,24,13,27,8.60
2017,05,24,13,28,6.20
2017,05,24,13,29,3.20
2017,05,24,13,30,1.60
2017,05,24,13,31,4.90
2017,05,24,13,32,1.90
2017,05,24,13,33,7.90
2017,05,24,13,34,12.50
2017,05,24,13,35,7.50
2017,05,24,13,36,5.00
2017,05,24,13,37,2.50
2017,05,24,13,38,9.50
2017,05,24,13,39,7.30
2017,05,24,13,40,9.30
2017,05,24,13,41,11.00
2017,05,24,13,42,9.90
2017,05,24,13,43,11.00
2017,05,24,13,44,8.40
2017,05,24,13,45,11.90
2017,05,24,13,46,7.70
2017,05,24,13,47,2.50
2017,05,24,13,48,7.90
2017,05,24,13,49,8.70
2017,05,24,13,50,11.80
2017,05,24,13,51,7.60
2017,05,24,13,52,9.00
2017,05,24,13,53,7.80
2017,05,24,13,54,5.80
2017,05,24,13,55,7.60
2017,05,24,13,56,6.70
2017,05,24,13,57,6.60
2017,05,24,13,58,5.50
2017,05,24,13,59,10.00
2017,05,24,14,00,6.90
2017,05,24,14,01,5.60
2017,05,24,14,02,10.70
2017,05,24,14,03,8.10
2017,05,24,14,04,9.80
2017,05,24,14,05,12.10
2017,05,24,14,06,11.90
2017,05,24,14,07,10.00
2017,05,24,14,08,10.80
2017,05,24,14,09,6.50
2017,05,24,14,10,6.70
2017,05,24,14,11,9.50
2017,05,24,14,12,8.40
2017,05,24,14,13,7.90
2017,05,24,14,14,10.30
2017,05,24,14,15,12.10
2017,05,24,14,16,11.80
2017,05,24,14,17,13.30
2017,05,24,14,18,8.20
2017,05,24,14,19,12.10
2017,05,24,14,20,15.30
2017,05,24,14,21,10.80
2017,05,24,14,22,13.30
2017,05,24,14,23,12.20
2017,05,24,14,24,9.50
2017,05,24,14,25,11.00
2017,05,24,14,26,10.90
2017,05,24,14,27,7.50
2017,05,24,14,28,9.60
2017,05,24,14,29,4.10
2017,05,24,14,30,9.40
2017,05,24,14,31,8.00
2017,05,24,14,32,7.30
2017,05,24,14,33,10.10
2017,05,24,14,34,10.30
2017,05,24,14,35,9.30
2017,05,24,14,36,13.50
2017,05,24,14,37,11.50
2017,05,24,14,38,11.30
2017,05,24,14,39,9.50
2017,05,24,14,40,12.50
2017,05,24,14,41,15.60
2017,05,24,14,42,8.90
2017,05,24,14,43,8.10
2017,05,24,14,44,11.70
2017,05,24,14,45,10.70
2017,05,24,14,46,12.40
2017,05,24,14,47,7.70
2017,05,24,14,48,5.20
2017,05,24,14,49,8.20
2017,05,24,14,50,7.30
2017,05,24,14,51,9.90
2017,05,24,14,52,8.50
2017,05,24,14,53,8.10
2017,05,24,14,54,10.50
2017,05,24,14,55,9.30
2017,05,24,14,56,7.60
2017,05,24,14,57,8.10
2017,05,24,14,58,4.20
2017,05,24,14,59,8.20
2017,05,24,15,00,10.80
2017,05,24,15,01,9.80
2017,05,24,15,02,5.30
2017,05,24,15,03,8.90
2017,05,24,15,04,6.80
2017,05,24,15,05,11.50
2017,05,24,15,06,11.50
2017,05,24,15,07,9.60
2017,05,24,15,08,6.60
2017,05,24,15,09,5.00
2017,05,24,15,10,7.00
2017,05,24,15,11,7.20
2017,05,24,15,12,3.30
2017,05,24,15,13,7.20
2017,05,24,15,14,11.40
2017,05,24,15,15,7.20
2017,05,24,15,16,3.30
2017,05,24,15,17,5.90
2017,05,24,15,18,5.70
2017,05,24,15,19,2.80
2017,05,24,15,20,5.30
2017,05,24,15,21,2.30
2017,05,24,15,22,7.40
2017,05,24,15,23,8.90
2017,05,24,15,24,3.40
2017,05,24,15,25,2.80
2017,05,24,15,26,10.00
2017,05,24,15,27,5.30
2017,05,24,15,28,10.90
2017,05,24,15,29,9.40
2017,05,24,15,30,11.70
2017,05,24,15,31,9.80
2017,05,24,15,32,10.20
2017,05,24,15,33,7.80
2017,05,24,15,34,13.30
2017,05,24,15,35,6.90
2017,05,24,15,36,5.70
2017,05,24,15,37,2.30
2017,05,24,15,38,4.40
2017,05,24,15,39,3.60
2017,05,24,15,40,7.50
2017,05,24,15,41,5.90
2017,05,24,15,42,6.70
2017,05,24,15,43,9.00
2017,05,24,15,44,8.90
2017,05,24,15,45,10.70
2017,05,24,15,46,7.90
2017,05,24,15,47,1.90
2017,05,24,15,48,5.40
2017,05,24,15,49,9.00
2017,05,24,15,50,6.80
2017,05,24,15,51,5.60
2017,05,24,15,52,2.60
2017,05,24,15,53,6.20
2017,05,24,15,54,9.20
2017,05,24,15,55,2.10
2017,05,24,15,56,4.60
2017,05,24,15,57,4.80
2017,05,24,15,58,6.70
2017,05,24,15,59,4.70
2017,05,24,16,00,7.90
2017,05,24,16,01,3.70
2017,05,24,16,02,9.20
2017,05,24,16,03,1.20
2017,05,24,16,04,1.80
2017,05,24,16,05,8.40
2017,05,24,16,06,3.80
2017,05,24,16,07,5.70
2017,05,24,16,08,7.60
2017,05,24,16,09,7.10
2017,05,24,16,10,7.60
2017,05,24,16,11,5.80
2017,05,24,16,12,0.90
2017,05,24,16,13,6.70
2017,05,24,16,14,8.30
2017,05,24,16,15,5.80
2017,05,24,16,16,2.20
2017,05,24,16,17,3.50
2017,05,24,16,18,2.00
2017,05,24,16,19,5.80
2017,05,24,16,20,5.40
2017,05,24,16,21,9.30
2017,05,24,16,22,4.80
2017,05,24,16,23,3.90
2017,05,24,16,24,8.20
2017,05,24,16,25,5.20
2017,05,24,16,26,4.00
2017,05,24,16,27,8.70
2017,05,24,16,28,10.60
2017,05,24,16,29,12.10
2017,05,24,16,30,9.80
2017,05,24,16,31,6.20
2017,05,24,16,32,6.70
2017,05,24,16,33,8.20
2017,05,24,16,34,7.40
2017,05,24,16,35,5.90
2017,05,24,16,36,2.80
2017,05,24,16,37,8.50
2017,05,24,16,38,9.50
2017,05,24,16,39,10.40
2017,05,24,16,40,7.60
2017,05,24,16,41,10.80
2017,05,24,16,42,11.30
2017,05,24,16,43,9.70
2017,05,24,16,44,5.00
2017,05,24,16,45,12.60
2017,05,24,16,46,10.20
2017,05,24,16,47,10.80
2017,05,24,16,48,14.20
2017,05,24,16,49,12.50
2017,05,24,16,50,9.20
2017,05,24,16,51,10.40
2017,05,24,16,52,11.70
2017,05,24,16,53,13.00
2017,05,24,16,54,10.30
2017,05,24,16,55,7.90
2017,05,24,16,56,10.90
2017,05,24,16,57,9.40
2017,05,24,16,58,10.10
2017,05,24,16,59,9.30
2017,05,24,17,00,9.80
2017,05,24,17,01,14.00
2017,05,24,17,02,10.40
2017,05,24,17,03,9.20
2017,05,24,17,04,9.20
2017,05,24,17,05,8.50
2017,05,24,17,06,8.10
2017,05,24,17,07,6.50
2017,05,24,17,08,8.80
2017,05,24,17,09,15.30
2017,05,24,17,10,6.70
2017,05,24,17,11,8.80
2017,05,24,17,12,6.30
2017,05,24,17,13,6.40
2017,05,24,17,14,10.40
2017,05,24,17,15,11.80
2017,05,24,17,16,7.30
2017,05,24,17,17,3.90
2017,05,24,17,18,7.50
2017,05,24,17,19,6.80
2017,05,24,17,20,9.90
2017,05,24,17,21,8.20
2017,05,24,17,22,9.60
2017,05,24,17,23,4.50
2017,05,24,17,24,7.20
2017,05,24,17,25,5.70
2017,05,24,17,26,9.20
2017,05,24,17,27,2.20
2017,05,24,17,28,10.50
2017,05,24,17,29,9.60
2017,05,24,17,30,14.30
2017,05,24,17,31,10.30
2017,05,24,17,32,10.20
2017,05,24,17,33,7.20
2017,05,24,17,34,5.50
2017,05,24,17,35,10.70
2017,05,24,17,36,12.30
2017,05,24,17,37,13.80
2017,05,24,17,38,6.70
2017,05,24,17,39,5.70
2017,05,24,17,40,9.10
2017,05,24,17,41,5.60
2017,05,24,17,42,8.30
2017,05,24,17,43,8.00
2017,05,24,17,44,14.00
2017,05,24,17,45,9.90
2017,05,24,17,46,12.10
2017,05,24,17,47,7.60
2017,05,24,17,48,8.90
2017,05,24,17,49,7.00
2017,05,24,17,50,5.50
2017,05,24,17,51,10.80
2017,05,24,17,52,8.60
2017,05,24,17,53,8.20
2017,05,24,17,54,12.00
2017,05,24,17,55,9.20
2017,05,24,17,56,8.20
2017,05,24,17,57,11.90
2017,05,24,17,58,10.00
2017,05,24,17,59,9.10
2017,05,24,18,00,9.00
2017,05,24,18,01,5.80
2017,05,24,18,02,7.70
2017,05,24,18,03,7.90
2017,05,24,18,04,12.60
2017,05,24,18,05,8.80
2017,05,24,18,06,9.30
2017,05,24,18,07,9.40
2017,05,24,18,08,14.60
2017,05,24,18,09,14.30
2017,05,24,18,10,12.40
2017,05,24,18,11,11.40
2017,05,24,18,12,11.70
2017,05,24,18,13,16.30
2017,05,24,18,14,11.80
2017,05,24,18,15,8.40
2017,05,24,18,16,10.50
2017,05,24,18,17,12.20
2017,05,24,18,18,9.00
2017,05,24,18,19,11.70
2017,05,24,18,20,11.80
2017,05,24,18,21,9.70
2017,05,24,18,22,11.10
2017,05,24,18,23,7.80
2017,05,24,18,24,13.90
2017,05,24,18,25,11.80
2017,05,24,18,26,7.40
2017,05,24,18,27,7.20
2017,05,24,18,28,12.50
2017,05,24,18,29,13.80
2017,05,24,18,30,10.70
2017,05,24,18,31,8.30
2017,05,24,18,32,10.00
2017,05,24,18,33,9.10
2017,05,24,18,34,10.90
2017,05,24,18,35,8.50
2017,05,24,18,36,8.90
2017,05,24,18,37,9.80
2017,05,24,18,38,7.00
2017,05,24,18,39,5.60
2017,05,24,18,40,12.80
2017,05,24,18,41,9.40
2017,05,24,18,42,12.20
2017,05,24,18,43,7.10
2017,05,24,18,44,7.80
2017,05,24,18,45,10.30
2017,05,24,18,46,4.70
2017,05,24,18,47,8.90
2017,05,24,18,48,8.60
2017,05,24,18,49,6.50
2017,05,24,18,50,7.40
2017,05,24,18,51,11.80
2017,05,24,18,52,8.90
2017,05,24,18,53,7.80
2017,05,24,18,54,7.70
2017,05,24,18,55,8.90
2017,05,24,18,56,7.30
2017,05,24,18,57,1.70
2017,05,24,18,58,0.70
2017,05,24,18,59,4.10
2017,05,24,19,00,1.90
2017,05,24,19,01,0.80
2017,05,24,19,02,3.60
2017,05,24,19,03,2.30
2017,05,24,19,04,1.80
2017,05,24,19,05,0.40
2017,05,24,19,06,1.60
2017,05,24,19,07,1.30
2017,05,24,19,08,0.90
2017,05,24,19,09,6.90
2017,05,24,19,10,3.30
2017,05,24,19,11,7.40
2017,05,24,19,12,7.00
2017,05,24,19,13,3.50
2017,05,24,19,14,4.30
2017,05,24,19,15,4.80
2017,05,24,19,16,6.30
2017,05,24,19,17,4.70
2017,05,24,19,18,5.30
2017,05,24,19,19,2.40
2017,05,24,19,20,3.50
2017,05,24,19,21,4.20
2017,05,24,19,22,1.30
2017,05,24,19,23,4.70
2017,05,24,19,24,2.90
2017,05,24,19,25,5.00
2017,05,24,19,26,7.40
2017,05,24,19,27,5.00
2017,05,24,19,28,4.30
2017,05,24,19,29,4.80
2017,05,24,19,30,4.60
2017,05,24,19,31,2.50
2017,05,24,19,32,9.50
2017,05,24,19,33,9.40
2017,05,24,19,34,6.70
2017,05,24,19,35,6.90
2017,05,24,19,36,7.40
2017,05,24,19,37,7.50
2017,05,24,19,38,8.20
2017,05,24,19,39,10.90
2017,05,24,19,40,8.50
2017,05,24,19,41,5.00
2017,05,24,19,42,4.40
2017,05,24,19,43,3.10
2017,05,24,19,44,5.20
2017,05,24,19,45,6.20
2017,05,24,19,46,6.60
2017,05,24,19,47,5.80
2017,05,24,19,48,2.20
2017,05,24,19,49,6.50
2017,05,24,19,50,3.60
2017,05,24,19,51,6.90
2017,05,24,19,52,6.00
2017,05,24,19,53,5.30
2017,05,24,19,54,6.70
2017,05,24,19,55,8.90
2017,05,24,19,56,7.40
2017,05,24,19,57,2.80
2017,05,24,19,58,4.70
2017,05,24,19,59,5.30
2017,05,24,20,00,3.10
2017,05,24,20,01,6.00
2017,05,24,20,02,4.00
2017,05,24,20,03,6.00
2017,05,24,20,04,6.10
2017,05,24,20,05,5.20
2017,05,24,20,06,2.70
2017,05,24,20,07,3.60
2017,05,24,20,08,0.30
2017,05,24,20,09,0.80
2017,05,24,20,10,2.10
2017,05,24,20,11,2.60
2017,05,24,20,12,1.90
2017,05,24,20,13,0.70
2017,05,24,20,14,3.50
2017,05,24,20,15,0.90
2017,05,24,20,16,0.20
2017,05,24,20,17,1.60
2017,05,24,20,18,1.00
2017,05,24,20,19,0.80
2017,05,24,20,20,1.70
2017,05,24,20,21,1.20
2017,05,24,20,22,1.20
2017,05,24,20,23,1.70
2017,05,24,20,24,1.10
2017,05,24,20,25,0.00
2017,05,24,20,26,0.20
2017,05,24,20,27,0.10
2017,05,24,20,28,2.40
2017,05,24,20,29,2.70
2017,05,24,20,30,3.40
2017,05,24,20,31,2.40
2017,05,24,20,32,1.30
2017,05,24,20,33,1.40
2017,05,24,20,34,2.50
2017,05,24,20,35,3.40
2017,05,24,20,36,0.50
2017,05,24,20,37,1.60
2017,05,24,20,38,2.50
2017,05,24,20,39,3.20
2017,05,24,20,40,0.10
2017,05,24,20,41,1.40
2017,05,24,20,42,0.20
2017,05,24,20,43,3.40
2017,05,24,20,44,0.20
2017,05,24,20,45,0.20
2017,05,24,20,46,2.90
2017,05,24,20,47,1.70
2017,05,24,20,48,0.30
2017,05,24,20,49,2.20
2017,05,24,20,50,0.80
2017,05,24,20,51,0.00
2017,05,24,20,52,1.30
2017,05,24,20,53,0.40
2017,05,24,20,54,0.00
2017,05,24,20,55,0.00
2017,05,24,20,56,0.00
2017,05,24,20,57,0.00
2017,05,24,20,58,1.50
2017,05,24,20,59,0.00
2017,05,24,21,00,1.50
2017,05,24,21,01,0.20
2017,05,24,21,02,0.00
2017,05,24,21,03,0.00
2017,05,24,21,04,0.80
2017,05,24,21,05,1.60
2017,05,24,21,06,2.30
2017,05,24,21,07,0.00
2017,05,24,21,08,0.00
2017,05,24,21,09,0.10
2017,05,24,21,10,0.00
2017,05,24,21,11,2.00
2017,05,24,21,12,0.10
2017,05,24,21,13,0.60
2017,05,24,21,14,0.00
2017,05,24,21,15,0.00
2017,05,24,21,16,0.00
2017,05,24,21,17,0.10
2017,05,24,21,18,0.00
2017,05,24,21,19,0.10
2017,05,24,21,20,0.20
2017,05,24,21,21,1.40
2017,05,24,21,22,0.00
2017,05,24,21,23,0.10
2017,05,24,21,24,0.00
2017,05,24,21,25,0.00
2017,05,24,21,26,0.00
2017,05,24,21,27,0.10
2017,05,24,21,28,0.00
2017,05,24,21,29,0.10
2017,05,24,21,30,0.00
2017,05,24,21,31,0.10
2017,05,24,21,32,2.30
2017,05,24,21,33,0.00
2017,05,24,21,34,0.00
2017,05,24,21,35,0.80
2017,05,24,21,36,0.00
2017,05,24,21,37,0.00
2017,05,24,21,38,0.00
2017,05,24,21,39,0.00
2017,05,24,21,40,0.00
2017,05,24,21,41,0.00
2017,05,24,21,42,0.00
2017,05,24,21,43,0.00
2017,05,24,21,44,0.00
2017,05,24,21,45,0.00
2017,05,24,21,46,0.00
2017,05,24,21,47,0.00
2017,05,24,21,48,0.00
2017,05,24,21,49,0.00
2017,05,24,21,50,0.00
2017,05,24,21,51,0.00
2017,05,24,21,52,0.00
2017,05,24,21,53,0.00
2017,05,24,21,54,0.00
2017,05,24,21,55,0.00
2017,05,24,21,56,0.00
2017,05,24,21,57,0.00
2017,05,24,21,58,0.00
2017,05,24,21,59,0.00
2017,05,24,22,00,0.00
2017,05,24,22,01,0.10
2017,05,24,22,02,0.00
2017,05,24,22,03,0.10
2017,05,24,22,04,0.10
2017,05,24,22,05,0.20
2017,05,24,22,06,0.00
2017,05,24,22,07,0.00
2017,05,24,22,08,0.10
2017,05,24,22,09,0.00
2017,05,24,22,10,0.00
2017,05,24,22,11,0.00
2017,05,24,22,12,0.00
2017,05,24,22,13,1.00
2017,05,24,22,14,2.90
2017,05,24,22,15,2.10
2017,05,24,22,16,2.70
2017,05,24,22,17,0.00
2017,05,24,22,18,0.00
2017,05,24,22,19,1.40
2017,05,24,22,20,1.40
2017,05,24,22,21,0.00
2017,05,24,22,22,0.10
2017,05,24,22,23,1.40
2017,05,24,22,24,1.10
2017,05,24,22,25,1.40
2017,05,24,22,26,0.00
2017,05,24,22,27,0.70
2017,05,24,22,28,0.20
2017,05,24,22,29,0.10
2017,05,24,22,30,0.10
2017,05,24,22,31,0.00
2017,05,24,22,32,0.00
2017,05,24,22,33,0.80
2017,05,24,22,34,0.00
2017,05,24,22,35,0.00
2017,05,24,22,36,0.10
2017,05,24,22,37,0.00
2017,05,24,22,38,0.00
2017,05,24,22,39,0.00
2017,05,24,22,40,0.00
2017,05,24,22,41,0.00
2017,05,24,22,42,0.00
2017,05,24,22,43,0.00
2017,05,24,22,44,0.00
2017,05,24,22,45,0.00
2017,05,24,22,46,0.00
2017,05,24,22,47,0.00